Hourly Weather Barlogi

Today, 18 April, Sunday

Time Temperature Precipitation Wind Pressure Humidity
00:00 +4°C° 0 mm 2 mps 750 mmHg 94%
01:00 +4°C° 0 mm 2 mps 750 mmHg 94%
02:00 +4°C° 0 mm 1 mps 750 mmHg 94%
03:00 +4°C° 0 mm 1 mps 750 mmHg 93%
04:00 +4°C° 0 mm 1 mps 750 mmHg 92%
05:00 +5°C° 0 mm 1 mps 750 mmHg 89%
06:00 +6°C° 0 mm 1 mps 750 mmHg 85%
07:00 +7°C° 0 mm 1 mps 750 mmHg 81%
08:00 +9°C° 0 mm 1 mps 750 mmHg 75%
09:00 +10°C° 0 mm 1 mps 750 mmHg 70%
10:00 +12°C° 0 mm 1 mps 750 mmHg 65%
11:00 +12°C° 0 mm 2 mps 750 mmHg 61%
12:00 +13°C° 0 mm 2 mps 750 mmHg 58%
13:00 +14°C° 0 mm 2 mps 750 mmHg 54%
14:00 +14°C° 0 mm 2 mps 750 mmHg 57%
15:00 +13°C° 0 mm 2 mps 749 mmHg 60%
16:00 +13°C° 0 mm 2 mps 749 mmHg 64%
17:00 +12°C° 0 mm 2 mps 749 mmHg 68%
18:00 +10°C° 0 mm 2 mps 750 mmHg 73%
19:00 +10°C° 0 mm 2 mps 750 mmHg 77%
20:00 +10°C° 0 mm 2 mps 750 mmHg 79%
21:00 +9°C° 0 mm 2 mps 750 mmHg 81%
22:00 +9°C° 0 mm 2 mps 750 mmHg 84%
23:00 +9°C° 0.5 mm 2 mps 750 mmHg 87%

Tomorrow, 19 April, Monday

Time Temperature Precipitation Wind Pressure Humidity
00:00 +9°C° 0.5 mm 2 mps 750 mmHg 90%
01:00 +9°C° 0.5 mm 3 mps 750 mmHg 94%
02:00 +8°C° 0 mm 3 mps 749 mmHg 94%
03:00 +7°C° 0 mm 3 mps 749 mmHg 94%
04:00 +5°C° 0 mm 3 mps 749 mmHg 94%
05:00 +5°C° 0 mm 4 mps 749 mmHg 89%
06:00 +6°C° 0 mm 5 mps 749 mmHg 84%
07:00 +7°C° 0 mm 5 mps 750 mmHg 79%
08:00 +8°C° 0 mm 5 mps 749 mmHg 73%
09:00 +9°C° 0 mm 6 mps 749 mmHg 67%
10:00 +10°C° 0 mm 6 mps 749 mmHg 60%
11:00 +10°C° 0 mm 6 mps 749 mmHg 59%
12:00 +10°C° 0 mm 5 mps 749 mmHg 59%
13:00 +10°C° 0 mm 5 mps 749 mmHg 58%
14:00 +10°C° 0 mm 5 mps 749 mmHg 61%
15:00 +10°C° 0 mm 5 mps 749 mmHg 63%
16:00 +10°C° 0 mm 4 mps 749 mmHg 66%
17:00 +10°C° 0 mm 4 mps 748 mmHg 69%
18:00 +8°C° 0 mm 4 mps 748 mmHg 71%
19:00 +7°C° 0 mm 4 mps 748 mmHg 73%
20:00 +8°C° 0 mm 3 mps 748 mmHg 75%
21:00 +8°C° 0 mm 3 mps 748 mmHg 77%
22:00 +8°C° 0 mm 3 mps 748 mmHg 79%
23:00 +7°C° 0 mm 3 mps 748 mmHg 79%

Day after tomorrow, 20 April, Tuesday

Time Temperature Precipitation Wind Pressure Humidity
00:00 +7°C° 0 mm 3 mps 748 mmHg 79%
01:00 +7°C° 0 mm 3 mps 747 mmHg 80%
02:00 +5°C° 0 mm 3 mps 747 mmHg 82%
03:00 +5°C° 0 mm 3 mps 747 mmHg 84%
04:00 +4°C° 0 mm 3 mps 747 mmHg 87%
05:00 +5°C° 0 mm 3 mps 747 mmHg 84%
06:00 +7°C° 0 mm 3 mps 747 mmHg 81%
07:00 +8°C° 0 mm 3 mps 747 mmHg 78%
08:00 +9°C° 0.1 mm 3 mps 747 mmHg 71%
09:00 +10°C° 0.1 mm 3 mps 747 mmHg 63%
10:00 +12°C° 0.1 mm 3 mps 746 mmHg 56%
11:00 +12°C° 0.1 mm 3 mps 746 mmHg 55%
12:00 +12°C° 0.1 mm 3 mps 746 mmHg 53%
13:00 +12°C° 0.1 mm 3 mps 746 mmHg 52%
14:00 +12°C° 0.2 mm 3 mps 745 mmHg 56%
15:00 +12°C° 0.2 mm 3 mps 745 mmHg 60%
16:00 +11°C° 0.2 mm 3 mps 745 mmHg 64%
17:00 +10°C° 0.2 mm 3 mps 745 mmHg 69%
18:00 +9°C° 0.2 mm 2 mps 745 mmHg 74%
19:00 +8°C° 0.2 mm 2 mps 745 mmHg 79%
20:00 +9°C° 0 mm 1 mps 745 mmHg 81%
21:00 +8°C° 0 mm 1 mps 745 mmHg 82%
22:00 +7°C° 0 mm 0 mps 745 mmHg 83%
23:00 +7°C° 0 mm 1 mps 745 mmHg 85%

21 April, Wednesday

Time Temperature Precipitation Wind Pressure Humidity
00:00 +7°C° 0 mm 1 mps 745 mmHg 87%
01:00 +6°C° 0 mm 1 mps 745 mmHg 89%
02:00 +5°C° 0.1 mm 2 mps 745 mmHg 90%
03:00 +5°C° 0.1 mm 2 mps 745 mmHg 92%
04:00 +5°C° 0.1 mm 2 mps 745 mmHg 93%
05:00 +6°C° 0 mm 2 mps 745 mmHg 88%
06:00 +7°C° 0 mm 2 mps 745 mmHg 84%
07:00 +8°C° 0 mm 3 mps 745 mmHg 79%
08:00 +9°C° 0.1 mm 3 mps 745 mmHg 71%
09:00 +11°C° 0.1 mm 3 mps 745 mmHg 63%
10:00 +12°C° 0.1 mm 4 mps 745 mmHg 54%
11:00 +12°C° 0 mm 4 mps 745 mmHg 51%
12:00 +13°C° 0 mm 4 mps 744 mmHg 48%
13:00 +13°C° 0 mm 4 mps 744 mmHg 45%
14:00 +13°C° 0 mm 3 mps 744 mmHg 46%
15:00 +13°C° 0 mm 3 mps 744 mmHg 47%
16:00 +13°C° 0 mm 3 mps 744 mmHg 48%
17:00 +12°C° 0.1 mm 3 mps 744 mmHg 57%
18:00 +10°C° 0.1 mm 3 mps 744 mmHg 66%
19:00 +9°C° 0.1 mm 3 mps 745 mmHg 75%
20:00 +8°C° 0 mm 3 mps 745 mmHg 78%
21:00 +8°C° 0 mm 3 mps 745 mmHg 81%
22:00 +7°C° 0 mm 3 mps 745 mmHg 85%
23:00 +7°C° 0 mm 3 mps 745 mmHg 85%

22 April, Thursday

Time Temperature Precipitation Wind Pressure Humidity
00:00 +5°C° 0 mm 3 mps 745 mmHg 86%
01:00 +5°C° 0 mm 3 mps 745 mmHg 87%
02:00 +6°C° 0 mm 2 mps 745 mmHg 86%
03:00 +6°C° 0 mm 2 mps 745 mmHg 86%
04:00 +7°C° 0 mm 2 mps 746 mmHg 85%
05:00 +7°C° 0.4 mm 3 mps 746 mmHg 87%
06:00 +6°C° 0.4 mm 4 mps 747 mmHg 88%
07:00 +6°C° 0.4 mm 4 mps 747 mmHg 90%
08:00 +6°C° 0.7 mm 4 mps 748 mmHg 89%
09:00 +5°C° 0.7 mm 4 mps 749 mmHg 88%
10:00 +5°C° 0.7 mm 3 mps 749 mmHg 86%
11:00 +7°C° 0 mm 3 mps 750 mmHg 80%
12:00 +8°C° 0 mm 3 mps 750 mmHg 73%
13:00 +9°C° 0 mm 3 mps 750 mmHg 66%
14:00 +9°C° 0 mm 2 mps 750 mmHg 66%
15:00 +9°C° 0 mm 2 mps 751 mmHg 66%
16:00 +9°C° 0 mm 2 mps 751 mmHg 65%
17:00 +10°C° 0 mm 1 mps 751 mmHg 68%
18:00 +9°C° 0 mm 1 mps 751 mmHg 71%
19:00 +8°C° 0 mm 1 mps 752 mmHg 73%
20:00 +8°C° 0 mm 1 mps 752 mmHg 76%
21:00 +8°C° 0 mm 1 mps 752 mmHg 78%
22:00 +7°C° 0 mm 2 mps 752 mmHg 80%
23:00 +7°C° 0 mm 2 mps 752 mmHg 81%

23 April, Friday

Time Temperature Precipitation Wind Pressure Humidity
00:00 +6°C° 0 mm 2 mps 752 mmHg 83%
01:00 +6°C° 0 mm 2 mps 752 mmHg 84%
02:00 +6°C° 0.4 mm 2 mps 752 mmHg 87%
03:00 +5°C° 0.4 mm 3 mps 752 mmHg 89%
04:00 +5°C° 0.4 mm 3 mps 752 mmHg 92%
05:00 +5°C° 0.6 mm 3 mps 752 mmHg 92%
06:00 +5°C° 0.6 mm 4 mps 752 mmHg 92%
07:00 +5°C° 0.6 mm 4 mps 751 mmHg 92%
08:00 +6°C° 0.1 mm 4 mps 751 mmHg 88%
09:00 +7°C° 0.1 mm 4 mps 751 mmHg 85%
10:00 +10°C° 0.1 mm 4 mps 751 mmHg 81%
11:00 +10°C° 0.1 mm 4 mps 751 mmHg 80%
12:00 +11°C° 0.1 mm 3 mps 752 mmHg 79%
13:00 +12°C° 0.1 mm 2 mps 752 mmHg 78%
14:00 +11°C° 0.1 mm 3 mps 752 mmHg 78%
15:00 +11°C° 0.1 mm 4 mps 752 mmHg 79%
16:00 +10°C° 0.1 mm 4 mps 753 mmHg 80%
17:00 +8°C° 0.3 mm 4 mps 753 mmHg 83%
18:00 +8°C° 0.3 mm 3 mps 754 mmHg 87%
19:00 +6°C° 0.3 mm 2 mps 754 mmHg 91%
20:00 +6°C° 0.3 mm 2 mps 755 mmHg 92%
21:00 +6°C° 0.3 mm 2 mps 755 mmHg 92%
22:00 +7°C° 0.3 mm 1 mps 755 mmHg 93%
23:00 +7°C° 0 mm 1 mps 755 mmHg 94%
Show more